Location: Monroe
(41.9160°N, 83.3980°W)
Time: 10:46:30
(UTC-04:00)

ISS - Visible Passes

Search period start: 26 September 2017 00:00
Search period end: 06 October 2017 00:00
Orbit: 401 x 407 km, 51.6° (Epoch: 26 September)

Date Brightness Start Highest point End Pass type
(mag) Time Alt. Az. Time Alt. Az. Time Alt. Az.
26 Sep -3.9 20:35:53 10° SW 20:39:07 68° SE 20:40:35 29° ENE visible
26 Sep -0.3 22:13:08 10° WNW 22:13:16 11° WNW 22:13:16 11° WNW visible
27 Sep -3.0 19:43:51 10° SSW 19:46:51 34° SE 19:49:52 10° ENE visible
27 Sep -2.3 21:20:19 10° W 21:23:20 33° NNW 21:23:22 33° NNW visible
28 Sep -3.1 20:27:39 10° WSW 20:30:51 53° NNW 20:33:19 16° NE visible
28 Sep -0.4 22:05:34 10° NW 22:05:59 12° NW 22:05:59 12° NW visible
29 Sep -1.7 21:12:38 10° WNW 21:15:15 21° NNW 21:15:48 20° N visible
30 Sep -2.1 20:19:45 10° W 20:22:40 29° NNW 20:25:32 10° NE visible
30 Sep -0.4 21:57:54 10° NW 21:58:11 11° NW 21:58:11 11° NW visible
01 Oct -1.4 21:05:01 10° NW 21:07:13 17° N 21:07:50 16° N visible
02 Oct -1.6 20:12:02 10° WNW 20:14:32 20° NNW 20:17:02 10° NE visible
02 Oct -0.5 21:49:51 10° NW 21:50:04 11° NNW 21:50:04 11° NNW visible
03 Oct -1.4 20:57:11 10° NW 20:59:11 15° N 20:59:37 15° N visible
04 Oct -1.4 20:04:19 10° NW 20:06:26 16° N 20:08:33 10° NNE visible
04 Oct -0.6 21:41:27 10° NNW 21:41:47 12° NNW 21:41:47 12° NNW visible
05 Oct -1.5 20:48:59 10° NNW 20:51:06 16° N 20:51:17 16° NNE visible
